[[{"header":{"parameterUnit":"m.s-1","parameterCategory":2,"la1":30.2991,"la2":30.254,"lo1":-89.0895,"lo2":-89.0444,"dy":0.0017,"dx":0.0017,"nx":28,"ny":28,"refTime":"2024-02-21T03:00:00:Z","depth":"0","parameterNumber":2,"parameterNumberName":"U-component_of_CURRENTS"},"data":[0,0,0,0,0,0,0,0,0,0,0,0,0,0,0,0,0,0,0,0,0,0,0,0,0,0,0,0,0,0,0,0,0,0,0,0,0,0,0,0,0,0,0,0,0,0,0,0,0,0,0,0,0,0,0,0,0,0,-0.2106,-0.2106,0,-0.2124,-0.2124,-0.2123,-0.2068,-0.2067,-0.2066,-0.2065,-0.1949,-0.1947,-0.1945,0,0,0,0,0,0,0,0,0,0,0,0,0,-0.1951,-0.1954,-0.2105,-0.2106,-0.2107,-0.2124,-0.2124,-0.2123,-0.2068,-0.2067,-0.2066,-0.2065,-0.195,-0.1948,-0.1945,0,0,0,0,0,0,0,0,0,0,0,0,0,-0.1992,-0.1955,-0.2105,-0.2087,-0.2086,-0.2124,-0.2124,-0.2123,-0.2069,-0.2067,-0.2065,-0.2064,-0.1951,-0.1948,-0.1945,-0.1957,0,0,-0.1935,-0.1934,0,0,0,0,0,0,0,0,-0.199,-0.1997,-0.2089,-0.2088,-0.2087,-0.2098,-0.2027,-0.2063,-0.2069,-0.2068,-0.2065,-0.2063,-0.1992,-0.1986,-0.1985,-0.1952,-0.1947,-0.1935,-0.1933,-0.1932,-0.1931,0,0,0,0,0,0,0,-0.1987,-0.1995,-0.2106,-0.209,-0.2089,-0.2054,-0.2058,-0.2033,-0.2031,-0.2068,-0.2066,-0.2079,-0.199,-0.1988,-0.1981,-0.1945,-0.1935,-0.1932,-0.193,-0.1929,-0.1942,-0.1944,0,0,0,0,0,0,-0.2005,-0.1994,-0.2105,-0.2107,-0.2041,-0.2058,-0.2063,-0.2091,-0.2034,-0.2027,-0.2081,-0.2077,-0.1994,-0.1985,-0.1977,-0.2005,-0.1932,-0.1929,-0.1927,-0.194,-0.1943,-0.1945,0,0,0,0,0,0,-0.2002,-0.2016,-0.2105,-0.2055,-0.2064,-0.2064,-0.2095,-0.2092,-0.2089,-0.2047,-0.2035,-0.2082,-0.1993,-0.1981,-0.1971,-0.1999,-0.1927,-0.1924,-0.1937,-0.1941,-0.1944,-0.2049,0,0,0,0,0,0,-0.1998,-0.2015,-0.203,-0.2057,-0.2068,-0.2136,-0.2097,-0.2094,-0.2104,-0.2098,-0.2044,-0.2032,-0.199,-0.1977,-0.1968,-0.1993,-0.1922,-0.1935,-0.1939,-0.1943,-0.2043,-0.2056,-0.2067,0,0,0,0,0,-0.1992,-0.2024,-0.2031,-0.2044,-0.2094,-0.2138,-0.214,-0.2128,-0.2105,-0.2116,-0.2085,-0.2033,-0.1997,-0.1976,-0.1965,-0.199,-0.1933,-0.1938,-0.1943,-0.2038,-0.2054,-0.2067,0,0,0,0,0,0,-0.1954,-0.2024,-0.2031,-0.2079,-0.2112,-0.2131,-0.2141,-0.2137,-0.2123,-0.2109,-0.2057,-0.2045,-0.2049,-0.2012,-0.199,-0.2011,-0.1958,-0.1962,-0.2035,-0.2049,-0.206,-0.2053,-0.1919,0,0,0,0,0,-0.1962,-0.2007,-0.2059,-0.2095,-0.2117,-0.213,-0.2142,-0.2143,-0.2143,-0.2134,-0.2104,-0.2075,-0.2066,-0.2049,-0.2032,-0.2038,-0.2021,-0.205,-0.2062,-0.2073,-0.2063,-0.2075,-0.2087,-0.1962,-0.1962,-0.1962,0,0,-0.1954,-0.2,-0.2022,-0.209,-0.211,-0.2157,-0.2131,-0.2163,-0.2193,-0.2124,-0.214,-0.2115,-0.2079,-0.2092,-0.209,-0.2059,-0.211,-0.2079,-0.2088,-0.2072,-0.2082,-0.2093,-0.2104,-0.1965,-0.1965,-0.1964,0,0,-0.1974,-0.201,-0.2057,-0.2097,-0.2151,-0.217,-0.2186,-0.2218,-0.222,-0.2245,-0.2208,-0.22,-0.2182,-0.2165,-0.2153,-0.2221,-0.2178,-0.2222,-0.2265,-0.2279,-0.2289,-0.2297,-0.2333,-0.2344,-0.2221,-0.2222,-0.2222,0,-0.1956,-0.2035,-0.2072,-0.2131,-0.2168,-0.2183,-0.2236,-0.2255,-0.2276,-0.2283,-0.2261,-0.2255,-0.2218,-0.2236,-0.2256,-0.2245,-0.2253,-0.2212,-0.2293,-0.2301,-0.2307,-0.2342,-0.2352,-0.2227,-0.2227,-0.2226,-0.2226,0,-0.2021,-0.2079,-0.2111,-0.2198,-0.2239,-0.2287,-0.2335,-0.236,-0.2364,-0.2375,-0.2396,-0.2363,-0.2348,-0.2353,-0.2317,-0.2353,-0.2348,-0.2312,-0.2254,-0.2326,-0.2359,-0.2368,-0.2236,-0.2233,-0.2232,-0.223,0,0,-0.1994,-0.2129,-0.2139,-0.2187,-0.228,-0.2316,-0.2382,-0.2439,-0.2467,-0.2482,-0.2515,-0.2501,-0.2469,-0.2454,-0.2421,-0.2428,-0.2489,-0.2389,-0.2388,-0.242,-0.2545,-0.2385,-0.2378,-0.247,-0.2471,-0.2472,-0.2564,0,-0.2029,-0.2141,-0.2207,-0.23,-0.2358,-0.2408,-0.2465,-0.2512,-0.2538,-0.2573,-0.2557,-0.2565,-0.2516,-0.2502,-0.2509,-0.2489,-0.251,-0.2469,-0.2473,-0.2473,-0.2316,-0.2381,-0.2236,-0.229,-0.2572,-0.2573,-0.2574,0,-0.2072,-0.2144,-0.2242,-0.2353,-0.2382,-0.2434,-0.2515,-0.2569,-0.2625,-0.264,-0.2653,-0.264,-0.2651,-0.2593,-0.2612,-0.259,-0.2572,-0.2561,-0.2564,-0.237,-0.2325,-0.2255,-0.2294,-0.2259,-0.2587,-0.2586,-0.2585,0,-0.2029,-0.2166,-0.2238,-0.228,-0.2406,-0.2446,-0.2501,-0.2574,-0.2618,-0.267,-0.2698,-0.2715,-0.2712,-0.2709,-0.2663,-0.2648,-0.2686,-0.2662,-0.2517,-0.2508,-0.2357,-0.2329,-0.2344,-0.2679,-0.2679,-0.2679,-0.2678,0,-0.2044,-0.2101,-0.2218,-0.2258,-0.2332,-0.2421,-0.2493,-0.2546,-0.2628,-0.2673,-0.2708,-0.2738,-0.2735,-0.2747,-0.2714,-0.2632,-0.2726,-0.2528,-0.251,-0.2392,-0.2368,-0.2302,-0.2329,-0.2682,-0.2681,-0.2681,-0.268,0,-0.1993,-0.2075,-0.2157,-0.228,-0.2315,-0.2359,-0.2486,-0.2534,-0.2613,-0.2677,-0.2692,-0.2766,-0.2749,-0.2744,-0.2737,-0.2668,-0.2562,-0.2572,-0.2436,-0.2395,-0.2168,-0.2206,-0.2202,-0.2144,-0.2433,-0.2429,-0.2426,0,-0.1985,-0.202,-0.2141,-0.218,-0.2237,-0.2321,-0.2378,-0.2495,-0.2551,-0.2678,-0.2699,-0.2725,-0.2681,-0.2631,-0.2511,-0.2427,-0.2442,-0.2267,-0.2175,-0.213,-0.2163,-0.2205,-0.2161,-0.2067,-0.2061,-0.2056,-0.2052,0,-0.1955,-0.1985,-0.2043,-0.2118,-0.2183,-0.2265,-0.2355,-0.2399,-0.2524,-0.2569,-0.2611,-0.2588,-0.2509,-0.2318,-0.2194,-0.2138,-0.2179,-0.2161,-0.2161,-0.19,-0.1905,-0.1846,-0.2068,-0.201,-0.2015,-0.2018,-0.202,-0.2022,-0.1907,-0.1926,-0.1984,-0.2049,-0.2118,-0.2173,-0.2195,-0.2277,-0.2322,-0.2333,-0.2408,-0.2296,-0.2173,-0.193,-0.1879,-0.1715,-0.1829,-0.1655,-0.1724,-0.1785,-0.165,-0.1763,-0.1631,-0.1633,-0.1635,-0.1636,-0.1638,0,-0.1845,-0.1868,-0.1918,-0.1979,-0.2003,-0.2073,-0.215,-0.2128,-0.2109,-0.2086,-0.2035,-0.1852,-0.1646,-0.1577,-0.1406,-0.1322,-0.1329,-0.1322,-0.1386,-0.1374,-0.1504,-0.1399,-0.1151,-0.1151,-0.1151,-0.1151,-0.1151,-0.1151,-0.1812,-0.1815,-0.1838,-0.1841,-0.1875,-0.1857,-0.1868,-0.1825,-0.178,-0.1612,-0.1492,-0.1425,-0.1376,-0.1385,-0.1244,-0.1178,-0.1197,-0.1135,-0.1217,-0.1337,-0.1375,-0.1412,-0.1317,-0.1055,-0.1056,-0.1007,-0.1007,-0.1006]},{"header":{"parameterUnit":"m.s-1","parameterCategory":2,"la1":30.2991,"la2":30.254,"lo1":-89.0895,"lo2":-89.0444,"dy":0.0017,"dx":0.0017,"nx":28,"ny":28,"refTime":"2024-02-21T03:00:00:Z","depth":"0","parameterNumber":3,"parameterNumberName":"V-component_of_CURRENTS"},"data":[0,0,0,0,0,0,0,0,0,0,0,0,0,0,0,0,0,0,0,0,0,0,0,0,0,0,0,0,0,0,0,0,0,0,0,0,0,0,0,0,0,0,0,0,0,0,0,0,0,0,0,0,0,0,0,0,0,0,-0.0603,-0.0602,0,-0.05,-0.0499,-0.0497,-0.0423,-0.0422,-0.0422,-0.0422,-0.0306,-0.0303,-0.03,0,0,0,0,0,0,0,0,0,0,0,0,0,-0.0629,-0.0629,-0.0603,-0.0602,-0.0601,-0.05,-0.0499,-0.0497,-0.0423,-0.0422,-0.0422,-0.0422,-0.0307,-0.0303,-0.03,0,0,0,0,0,0,0,0,0,0,0,0,0,-0.0577,-0.0629,-0.0603,-0.0555,-0.055,-0.0501,-0.0499,-0.0496,-0.0423,-0.0422,-0.0422,-0.0422,-0.0308,-0.0304,-0.0299,-0.0281,0,0,-0.0286,-0.0285,0,0,0,0,0,0,0,0,-0.0581,-0.0576,-0.0563,-0.0558,-0.0553,-0.0477,-0.0465,-0.0425,-0.0423,-0.0467,-0.0422,-0.0421,-0.0365,-0.0356,-0.0332,-0.0275,-0.027,-0.0286,-0.0283,-0.0282,-0.028,0,0,0,0,0,0,0,-0.0584,-0.058,-0.0558,-0.0562,-0.0556,-0.0502,-0.0495,-0.0456,-0.0416,-0.0463,-0.0458,-0.0453,-0.0361,-0.0336,-0.0329,-0.0269,-0.0286,-0.0282,-0.028,-0.0278,-0.0158,-0.0157,0,0,0,0,0,0,-0.0611,-0.0584,-0.0562,-0.0556,-0.0571,-0.0503,-0.0495,-0.0499,-0.0416,-0.0405,-0.0454,-0.045,-0.0344,-0.0334,-0.0324,-0.0283,-0.0282,-0.0278,-0.0275,-0.0158,-0.0158,-0.0157,0,0,0,0,0,0,-0.0613,-0.0611,-0.0566,-0.057,-0.0561,-0.0504,-0.0508,-0.0497,-0.0468,-0.041,-0.0398,-0.0437,-0.0343,-0.033,-0.0288,-0.0278,-0.0276,-0.0272,-0.0159,-0.0158,-0.0157,-0.0209,0,0,0,0,0,0,-0.0614,-0.0612,-0.0618,-0.0572,-0.0562,-0.0539,-0.0509,-0.0495,-0.0468,-0.0462,-0.0392,-0.0381,-0.0342,-0.0294,-0.0283,-0.0272,-0.0268,-0.016,-0.0159,-0.0158,-0.0208,-0.021,-0.0211,0,0,0,0,0,-0.0615,-0.0633,-0.062,-0.0617,-0.0575,-0.0539,-0.0528,-0.0483,-0.0468,-0.0455,-0.0409,-0.0383,-0.0279,-0.0291,-0.0278,-0.0265,-0.016,-0.0159,-0.0158,-0.0207,-0.0209,-0.0211,0,0,0,0,0,0,-0.065,-0.0627,-0.061,-0.0621,-0.0583,-0.0528,-0.0517,-0.0487,-0.0439,-0.0435,-0.0378,-0.0364,-0.0322,-0.0287,-0.0301,-0.0225,-0.0213,-0.021,-0.0255,-0.0257,-0.0259,-0.0273,-0.0265,0,0,0,0,0,-0.0663,-0.0669,-0.063,-0.0636,-0.0621,-0.0568,-0.0548,-0.0518,-0.0474,-0.0452,-0.0406,-0.0354,-0.0305,-0.0278,-0.0233,-0.0196,-0.0153,-0.0177,-0.0179,-0.0181,-0.0182,-0.0121,-0.0117,-0.0152,-0.0152,-0.0152,0,0,-0.0682,-0.0667,-0.0672,-0.0643,-0.061,-0.059,-0.0554,-0.0528,-0.0507,-0.0448,-0.0409,-0.0362,-0.0298,-0.0253,-0.023,-0.0223,-0.0144,-0.0179,-0.0181,-0.0181,-0.0119,-0.0116,-0.0113,-0.0151,-0.0151,-0.0152,0,0,-0.0715,-0.0705,-0.0714,-0.0684,-0.0644,-0.061,-0.0607,-0.0553,-0.0523,-0.0482,-0.0432,-0.0381,-0.0314,-0.026,-0.0225,-0.0208,-0.0159,-0.0195,-0.0211,-0.0152,-0.0149,-0.0145,-0.0075,-0.0065,-0.0192,-0.0192,-0.0192,0,-0.0735,-0.0739,-0.0708,-0.0698,-0.0681,-0.0625,-0.062,-0.0578,-0.0517,-0.0491,-0.0479,-0.0365,-0.0313,-0.0245,-0.0238,-0.0212,-0.0171,-0.0212,-0.0155,-0.0151,-0.0147,-0.0076,-0.0064,-0.0195,-0.0194,-0.0194,-0.0194,0,-0.0762,-0.0759,-0.0761,-0.0733,-0.071,-0.0696,-0.0644,-0.0617,-0.0581,-0.0529,-0.0464,-0.0391,-0.0321,-0.0294,-0.026,-0.0201,-0.0178,-0.017,-0.0156,-0.0147,-0.0072,-0.0059,-0.0198,-0.0197,-0.0196,-0.0196,0,0,-0.0818,-0.0789,-0.0786,-0.0779,-0.0727,-0.0714,-0.0686,-0.0636,-0.0611,-0.0542,-0.0502,-0.0408,-0.0363,-0.032,-0.0265,-0.0212,-0.014,-0.0185,-0.0181,-0.0126,-0.0001,0.0072,0.0094,-0.013,-0.0128,-0.0127,0.0043,0,-0.0843,-0.0846,-0.0821,-0.0815,-0.081,-0.0759,-0.0738,-0.0684,-0.0627,-0.0573,-0.0482,-0.042,-0.0372,-0.0341,-0.0278,-0.0179,-0.0111,-0.0187,-0.0009,-0.0003,0.0052,0.011,0.0115,0.0271,0.0056,0.0059,0.006,0,-0.0869,-0.0868,-0.0878,-0.0857,-0.0851,-0.084,-0.0799,-0.0767,-0.0672,-0.0629,-0.0546,-0.0472,-0.0368,-0.0344,-0.0159,-0.0214,-0.011,-0.0034,-0.0025,0.0069,0.0094,0.0228,0.0303,0.0434,0.008,0.0079,0.0077,0,-0.0917,-0.0904,-0.092,-0.0909,-0.0879,-0.0878,-0.0855,-0.0781,-0.0759,-0.0657,-0.063,-0.0492,-0.0425,-0.029,-0.0107,-0.014,0.0097,0.0075,0.0247,0.0253,0.0308,0.0317,0.0522,0.0208,0.0208,0.0208,0.0207,0,-0.0947,-0.0954,-0.0945,-0.0949,-0.0966,-0.0924,-0.0919,-0.0875,-0.0814,-0.0787,-0.066,-0.0603,-0.0413,-0.0252,-0.0104,0.0136,0.0115,0.0266,0.0309,0.0293,0.0298,0.0453,0.0495,0.0214,0.0213,0.0211,0.021,0,-0.0984,-0.0979,-0.0998,-0.0989,-0.0989,-0.0998,-0.098,-0.0976,-0.0904,-0.0872,-0.0848,-0.0673,-0.0444,-0.0221,0.0031,0.0151,0.0459,0.0453,0.0434,0.0472,0.0718,0.0755,0.101,0.1103,0.0647,0.065,0.0653,0,-0.0998,-0.1014,-0.1036,-0.1061,-0.1059,-0.1065,-0.1079,-0.1029,-0.1025,-0.0911,-0.0904,-0.0671,-0.0472,-0.004,0.0224,0.054,0.0629,0.07,0.0639,0.0763,0.0836,0.0852,0.0911,0.0697,0.07,0.0702,0.0704,0,-0.1021,-0.1037,-0.1057,-0.1119,-0.1151,-0.1181,-0.1189,-0.1206,-0.1149,-0.109,-0.0939,-0.0756,-0.0314,0.0074,0.0484,0.0645,0.0791,0.0753,0.0886,0.0909,0.0937,0.1035,0.0558,0.0723,0.0721,0.0719,0.0718,0.0718,-0.1036,-0.1066,-0.1111,-0.1171,-0.1224,-0.1287,-0.1318,-0.1309,-0.1287,-0.1157,-0.0947,-0.0603,-0.0088,0.0513,0.0708,0.1043,0.1001,0.1106,0.1148,0.116,0.1233,0.0814,0.102,0.1019,0.1019,0.1019,0.1019,0,-0.1046,-0.1093,-0.1158,-0.1243,-0.1331,-0.1335,-0.1392,-0.1393,-0.1368,-0.1109,-0.0866,-0.0203,0.0295,0.0739,0.1213,0.1405,0.1424,0.1492,0.1497,0.1544,0.1183,0.1167,0.1409,0.1409,0.1409,0.1409,0.1409,0.1408,-0.1052,-0.1119,-0.1167,-0.1319,-0.1386,-0.1491,-0.1527,-0.1495,-0.1328,-0.0896,-0.0464,-0.0042,0.0564,0.1272,0.1693,0.1729,0.1893,0.188,0.1993,0.1706,0.1671,0.1638,0.1635,0.1971,0.1972,0.2317,0.2321,0.2323]}],[{"header":{"parameterUnit":"m.s-1","parameterCategory":2,"la1":30.2991,"la2":30.254,"lo1":-89.0895,"lo2":-89.0444,"dy":0.0017,"dx":0.0017,"nx":28,"ny":28,"refTime":"2024-02-21T03:00:00:Z","depth":"2","parameterNumber":2,"parameterNumberName":"U-component_of_CURRENTS"},"data":[0,0,0,0,0,0,0,0,0,0,0,0,0,0,0,0,0,0,0,0,0,0,0,0,0,0,0,0,0,0,0,0,0,0,0,0,0,0,0,0,0,0,0,0,0,0,0,0,0,0,0,0,0,0,0,0,0,0,-0.1605,-0.1605,0,-0.1636,-0.1637,-0.1637,-0.1651,-0.1651,-0.1651,-0.165,-0.1759,-0.1762,-0.1766,0,0,0,0,0,0,0,0,0,0,0,0,0,-0.1608,-0.1608,-0.1605,-0.1605,-0.1605,-0.1636,-0.1637,-0.1638,-0.1652,-0.1651,-0.1651,-0.165,-0.1758,-0.1762,-0.1766,0,0,0,0,0,0,0,0,0,0,0,0,0,-0.1624,-0.1608,-0.1605,-0.1613,-0.1613,-0.1636,-0.1637,-0.1638,-0.1652,-0.1651,-0.165,-0.165,-0.1757,-0.1762,-0.1766,-0.1809,0,0,-0.1782,-0.1784,0,0,0,0,0,0,0,0,-0.1623,-0.1624,-0.1612,-0.1612,-0.1613,-0.1636,-0.1678,-0.1698,-0.1652,-0.1642,-0.165,-0.165,-0.1723,-0.1731,-0.1743,-0.1815,-0.1819,-0.1782,-0.1785,-0.1787,-0.1789,0,0,0,0,0,0,0,-0.1622,-0.1623,-0.1622,-0.1612,-0.1612,-0.1631,-0.1633,-0.1682,-0.169,-0.1642,-0.1642,-0.1639,-0.1724,-0.1738,-0.1745,-0.1821,-0.1782,-0.1786,-0.1789,-0.1791,-0.1962,-0.1963,0,0,0,0,0,0,-0.1607,-0.1622,-0.1621,-0.1622,-0.1612,-0.1631,-0.1633,-0.1632,-0.1688,-0.1694,-0.164,-0.164,-0.173,-0.174,-0.1749,-0.1817,-0.1787,-0.1792,-0.1795,-0.196,-0.1962,-0.1964,0,0,0,0,0,0,-0.1607,-0.1607,-0.1619,-0.1619,-0.1622,-0.1631,-0.1631,-0.1633,-0.1663,-0.1684,-0.1693,-0.1668,-0.173,-0.1742,-0.1794,-0.182,-0.1794,-0.1798,-0.1958,-0.1961,-0.1963,-0.1943,0,0,0,0,0,0,-0.1608,-0.1607,-0.1612,-0.1618,-0.1621,-0.1654,-0.1631,-0.1634,-0.1659,-0.166,-0.1711,-0.1719,-0.173,-0.1786,-0.1798,-0.1827,-0.1802,-0.1956,-0.196,-0.1962,-0.1942,-0.1944,-0.1947,0,0,0,0,0,-0.1608,-0.1619,-0.1612,-0.1612,-0.1623,-0.1655,-0.1661,-0.1667,-0.1661,-0.1689,-0.1704,-0.1718,-0.1814,-0.1791,-0.1805,-0.1836,-0.1955,-0.1959,-0.1962,-0.1941,-0.1944,-0.1947,0,0,0,0,0,0,-0.163,-0.1621,-0.1614,-0.1623,-0.1644,-0.1656,-0.1673,-0.1682,-0.1717,-0.1715,-0.1735,-0.1746,-0.1799,-0.1828,-0.1802,-0.1896,-0.189,-0.1896,-0.1869,-0.1872,-0.1875,-0.1886,-0.1806,0,0,0,0,0,-0.1632,-0.1643,-0.164,-0.1658,-0.1657,-0.167,-0.1684,-0.1694,-0.1716,-0.1731,-0.1763,-0.1796,-0.1825,-0.1855,-0.189,-0.1948,-0.1967,-0.1981,-0.1983,-0.1985,-0.2006,-0.2046,-0.2053,-0.1976,-0.1976,-0.1975,0,0,-0.167,-0.1646,-0.1669,-0.1665,-0.1672,-0.1691,-0.1679,-0.1708,-0.1738,-0.174,-0.1795,-0.1809,-0.1841,-0.1889,-0.1918,-0.1918,-0.2013,-0.1989,-0.199,-0.2011,-0.205,-0.2058,-0.2064,-0.1978,-0.1978,-0.1977,0,0,-0.1707,-0.1701,-0.1707,-0.1723,-0.1721,-0.1726,-0.1739,-0.176,-0.1779,-0.184,-0.1824,-0.1852,-0.1934,-0.1934,-0.195,-0.2,-0.2019,-0.202,-0.205,-0.2087,-0.2094,-0.21,-0.2108,-0.2114,-0.2028,-0.2028,-0.2028,0,-0.1725,-0.1736,-0.1725,-0.1723,-0.1738,-0.1742,-0.1764,-0.1792,-0.1838,-0.1854,-0.1868,-0.1941,-0.1957,-0.1985,-0.1991,-0.2005,-0.2023,-0.2025,-0.2088,-0.2095,-0.2101,-0.2108,-0.2116,-0.2027,-0.2027,-0.2027,-0.2027,0,-0.176,-0.1779,-0.1786,-0.1779,-0.1798,-0.1831,-0.1843,-0.1876,-0.1902,-0.1927,-0.1982,-0.1999,-0.2042,-0.2046,-0.2036,-0.2079,-0.2074,-0.2075,-0.2072,-0.2107,-0.2113,-0.2121,-0.2026,-0.2026,-0.2027,-0.2027,0,0,-0.1768,-0.1798,-0.1803,-0.181,-0.1831,-0.1844,-0.1891,-0.1922,-0.1957,-0.2011,-0.2068,-0.2089,-0.2094,-0.2112,-0.2096,-0.2126,-0.2158,-0.2124,-0.2126,-0.2116,-0.2229,-0.2085,-0.208,-0.2171,-0.2173,-0.2175,-0.2204,0,-0.1788,-0.1811,-0.1814,-0.1863,-0.1886,-0.1899,-0.1946,-0.1982,-0.2027,-0.2091,-0.2106,-0.216,-0.212,-0.2141,-0.216,-0.2175,-0.2186,-0.215,-0.2211,-0.2213,-0.2068,-0.2087,-0.1913,-0.1913,-0.2212,-0.2213,-0.2214,0,-0.1801,-0.1822,-0.1869,-0.1906,-0.1909,-0.1945,-0.1997,-0.2038,-0.2114,-0.215,-0.2195,-0.2222,-0.2256,-0.2235,-0.2272,-0.2254,-0.2241,-0.2245,-0.2246,-0.2132,-0.2085,-0.1935,-0.1917,-0.2228,-0.2227,-0.2226,-0.2225,0,-0.1807,-0.1844,-0.188,-0.1903,-0.1955,-0.1979,-0.2007,-0.2076,-0.2103,-0.2198,-0.2248,-0.2291,-0.2353,-0.2348,-0.2294,-0.2321,-0.2321,-0.2365,-0.2214,-0.2203,-0.2078,-0.2052,-0.2388,-0.2388,-0.2388,-0.2388,-0.2388,0,-0.1803,-0.1843,-0.1898,-0.1929,-0.1978,-0.2008,-0.2067,-0.21,-0.2173,-0.2198,-0.2279,-0.2301,-0.2396,-0.2382,-0.2328,-0.2254,-0.2336,-0.2224,-0.2206,-0.2062,-0.2035,-0.2336,-0.233,-0.2389,-0.2389,-0.2389,-0.2389,0,-0.1794,-0.1841,-0.1896,-0.1965,-0.1988,-0.2028,-0.2083,-0.2095,-0.2197,-0.2242,-0.2271,-0.2364,-0.2362,-0.2347,-0.2358,-0.2306,-0.2233,-0.2163,-0.1958,-0.1915,-0.2106,-0.2099,-0.2115,-0.211,-0.2106,-0.2103,-0.21,0,-0.1787,-0.1817,-0.191,-0.1937,-0.197,-0.2035,-0.2043,-0.2104,-0.2099,-0.2219,-0.2201,-0.2288,-0.2234,-0.2184,-0.2117,-0.201,-0.2075,-0.1812,-0.1843,-0.21,-0.2082,-0.2081,-0.2079,-0.1673,-0.1667,-0.1662,-0.1658,0,-0.1756,-0.1798,-0.1826,-0.1906,-0.1925,-0.1932,-0.1955,-0.195,-0.1995,-0.2031,-0.2013,-0.2006,-0.2019,-0.1868,-0.1778,-0.1693,-0.183,-0.1712,-0.204,-0.1747,-0.1679,-0.1663,-0.1677,-0.1614,-0.1619,-0.1622,-0.1624,-0.1626,-0.1712,-0.172,-0.1756,-0.181,-0.1839,-0.1788,-0.1743,-0.1729,-0.169,-0.1679,-0.175,-0.1692,-0.1737,-0.1537,-0.1408,-0.1372,-0.1545,-0.1506,-0.1524,-0.1547,-0.1469,-0.1395,-0.1261,-0.1264,-0.1266,-0.1267,-0.1269,0,-0.1594,-0.1597,-0.1643,-0.1681,-0.1663,-0.1712,-0.1621,-0.153,-0.1414,-0.1425,-0.1392,-0.1245,-0.1143,-0.1174,-0.1053,-0.1042,-0.1073,-0.1005,-0.1047,-0.109,-0.1129,-0.1032,-0.0708,-0.0706,-0.0705,-0.0704,0,0,-0.1522,-0.1487,-0.1507,-0.1469,-0.1509,-0.1381,-0.1288,-0.1159,-0.1102,-0.099,-0.096,-0.106,-0.1113,-0.0902,-0.086,-0.0758,-0.0921,-0.072,-0.1166,-0.1255,-0.1292,-0.1406,-0.1302,0,0,0,0,0]},{"header":{"parameterUnit":"m.s-1","parameterCategory":2,"la1":30.2991,"la2":30.254,"lo1":-89.0895,"lo2":-89.0444,"dy":0.0017,"dx":0.0017,"nx":28,"ny":28,"refTime":"2024-02-21T03:00:00:Z","depth":"2","parameterNumber":3,"parameterNumberName":"V-component_of_CURRENTS"},"data":[0,0,0,0,0,0,0,0,0,0,0,0,0,0,0,0,0,0,0,0,0,0,0,0,0,0,0,0,0,0,0,0,0,0,0,0,0,0,0,0,0,0,0,0,0,0,0,0,0,0,0,0,0,0,0,0,0,0,0.0094,0.0094,0,0.0131,0.0132,0.0132,0.0172,0.0172,0.0173,0.0173,0.0324,0.0327,0.0331,0,0,0,0,0,0,0,0,0,0,0,0,0,0.008,0.008,0.0094,0.0094,0.0094,0.0131,0.0132,0.0132,0.0172,0.0172,0.0173,0.0173,0.0323,0.0327,0.0331,0,0,0,0,0,0,0,0,0,0,0,0,0,0.0101,0.008,0.0094,0.0117,0.0119,0.0131,0.0132,0.0133,0.0172,0.0172,0.0173,0.0173,0.0321,0.0327,0.0332,0.0356,0,0,0.0349,0.0351,0,0,0,0,0,0,0,0,0.01,0.0102,0.0113,0.0115,0.0117,0.0145,0.0182,0.0212,0.0172,0.0154,0.0173,0.0173,0.0273,0.0282,0.029,0.0363,0.037,0.0349,0.0353,0.0355,0.0357,0,0,0,0,0,0,0,0.0098,0.01,0.0111,0.0113,0.0116,0.0133,0.0136,0.0188,0.0214,0.0156,0.0158,0.0158,0.0275,0.0284,0.0294,0.0372,0.0349,0.0354,0.0358,0.036,0.0526,0.0527,0,0,0,0,0,0,0.0087,0.0099,0.011,0.0112,0.0107,0.0132,0.0136,0.0138,0.0211,0.0221,0.0158,0.016,0.0275,0.0288,0.03,0.0339,0.0355,0.036,0.0364,0.0525,0.0527,0.0528,0,0,0,0,0,0,0.0086,0.0087,0.0108,0.0104,0.0108,0.0131,0.0133,0.0138,0.0153,0.0211,0.0224,0.0167,0.0276,0.0292,0.0336,0.0345,0.0363,0.0368,0.0524,0.0526,0.0527,0.0415,0,0,0,0,0,0,0.0086,0.0087,0.0085,0.0103,0.0107,0.0114,0.0132,0.0138,0.015,0.0154,0.0223,0.0237,0.0277,0.0327,0.0341,0.0353,0.0372,0.0523,0.0525,0.0527,0.0417,0.0412,0.0408,0,0,0,0,0,0.0085,0.0077,0.0085,0.0086,0.0104,0.0114,0.0118,0.0138,0.015,0.0154,0.0193,0.0235,0.0352,0.0331,0.0348,0.0362,0.0522,0.0524,0.0527,0.0419,0.0413,0.0408,0,0,0,0,0,0,0.0072,0.0081,0.009,0.0086,0.0098,0.012,0.012,0.0137,0.0169,0.0175,0.0233,0.0249,0.0292,0.035,0.0326,0.0422,0.0451,0.0457,0.0364,0.0359,0.0355,0.0348,0.0377,0,0,0,0,0,0.0067,0.0065,0.0078,0.0077,0.0078,0.01,0.0107,0.0122,0.0149,0.0164,0.0211,0.0271,0.0316,0.0352,0.0401,0.0449,0.0487,0.0479,0.0475,0.047,0.048,0.0533,0.0533,0.0536,0.0536,0.0536,0,0,0.0062,0.0066,0.0066,0.0074,0.0084,0.0082,0.0107,0.0113,0.0122,0.0177,0.0208,0.0249,0.0322,0.0364,0.0393,0.0414,0.0484,0.0473,0.0468,0.0481,0.0536,0.0535,0.0535,0.0538,0.0537,0.0537,0,0,0.0042,0.0053,0.004,0.0048,0.0056,0.007,0.0071,0.0094,0.0114,0.015,0.0181,0.0222,0.0314,0.0347,0.0381,0.0392,0.0448,0.0425,0.0406,0.0456,0.0456,0.0456,0.0465,0.0466,0.0435,0.0435,0.0434,0,0.0034,0.0021,0.0039,0.0029,0.0029,0.0062,0.0049,0.0074,0.0113,0.0127,0.0157,0.0258,0.0307,0.0346,0.0347,0.0379,0.0408,0.0406,0.0446,0.0447,0.0449,0.0459,0.0462,0.0429,0.043,0.0431,0.0431,0,0.0004,-0.0005,-0.0012,-0.0015,-0.0008,-0.0012,0.0017,0.0032,0.0069,0.0102,0.0153,0.0214,0.0278,0.0301,0.0329,0.0367,0.0379,0.0415,0.0444,0.0441,0.0452,0.0458,0.0422,0.0424,0.0425,0.0427,0,0,-0.0026,-0.0035,-0.0039,-0.0054,-0.0033,-0.0038,-0.0021,-0.0002,0.0006,0.0075,0.01,0.0174,0.0213,0.0255,0.0293,0.0343,0.0356,0.0385,0.039,0.0366,0.044,0.0419,0.0424,0.0398,0.04,0.0401,0.0427,0,-0.0061,-0.0099,-0.0086,-0.0115,-0.0134,-0.01,-0.0092,-0.0063,-0.0013,0.0023,0.0102,0.0145,0.0196,0.0217,0.0273,0.0342,0.0374,0.0344,0.0473,0.0477,0.0437,0.0431,0.0416,0.0437,0.0432,0.0433,0.0434,0,-0.0102,-0.0123,-0.0165,-0.0182,-0.0187,-0.0191,-0.0181,-0.0163,-0.0097,-0.0058,0.0012,0.0079,0.015,0.0199,0.0323,0.0304,0.0363,0.0418,0.0422,0.0453,0.0468,0.0453,0.0448,0.0444,0.0443,0.0442,0.0442,0,-0.0152,-0.0181,-0.0222,-0.0226,-0.0233,-0.0242,-0.0233,-0.0185,-0.0183,-0.0104,-0.0088,0.0025,0.0074,0.0189,0.0293,0.0321,0.0417,0.0473,0.0501,0.0498,0.0539,0.0538,0.055,0.055,0.055,0.055,0.055,0,-0.0196,-0.0234,-0.0252,-0.0276,-0.0326,-0.0294,-0.0319,-0.0294,-0.0253,-0.0256,-0.0134,-0.011,0.008,0.0158,0.0269,0.0384,0.0398,0.0494,0.0513,0.0496,0.0491,0.0556,0.0557,0.0551,0.0551,0.0551,0.0551,0,-0.025,-0.0259,-0.0323,-0.0348,-0.0356,-0.0388,-0.0396,-0.0413,-0.0357,-0.0356,-0.0338,-0.0208,-0.0084,0.0059,0.0232,0.0334,0.0451,0.0473,0.0414,0.0426,0.0508,0.0503,0.0555,0.0554,0.0554,0.0554,0.0554,0,-0.0279,-0.0317,-0.0389,-0.0438,-0.0454,-0.0486,-0.0515,-0.0475,-0.0486,-0.0424,-0.0434,-0.0313,-0.0229,-0.0,0.0208,0.0384,0.0401,0.0456,0.0525,0.05,0.0513,0.0508,0.0504,0.052,0.052,0.0519,0.0519,0,-0.0341,-0.0379,-0.0437,-0.0536,-0.059,-0.0641,-0.0662,-0.0687,-0.064,-0.0621,-0.0569,-0.049,-0.0252,-0.0018,0.0202,0.031,0.0442,0.0456,0.0458,0.0515,0.0469,0.0481,0.0477,0.0516,0.0516,0.0516,0.0517,0.0517,-0.0397,-0.0463,-0.0549,-0.0646,-0.0717,-0.0778,-0.0807,-0.0813,-0.0818,-0.0761,-0.0672,-0.0512,-0.0287,0.0076,0.0238,0.042,0.0438,0.051,0.0511,0.0512,0.0498,0.0453,0.0492,0.0492,0.0492,0.0492,0.0493,0,-0.0446,-0.0535,-0.0645,-0.076,-0.0862,-0.0868,-0.0905,-0.091,-0.0907,-0.0799,-0.0708,-0.0443,-0.0185,0.0052,0.0347,0.0503,0.0519,0.0522,0.0529,0.053,0.0531,0.0519,0.0518,0.0519,0.0519,0.052,0,0,-0.0479,-0.0593,-0.0661,-0.0855,-0.0948,-0.103,-0.1048,-0.1021,-0.0929,-0.0813,-0.0649,-0.0462,-0.0166,0.0049,0.0242,0.04,0.0423,0.0407,0.0367,0.0351,0.0351,0.05,0.0478,0,0,0,0,0]}],[{"header":{"parameterUnit":"m.s-1","parameterCategory":2,"la1":30.2991,"la2":30.254,"lo1":-89.0895,"lo2":-89.0444,"dy":0.0017,"dx":0.0017,"nx":28,"ny":28,"refTime":"2024-02-21T03:00:00:Z","depth":"4","parameterNumber":2,"parameterNumberName":"U-component_of_CURRENTS"},"data":[0,0,0,0,0,0,0,0,0,0,0,0,0,0,0,0,0,0,0,0,0,0,0,0,0,0,0,0,0,0,0,0,0,0,0,0,0,0,0,0,0,0,0,0,0,0,0,0,0,0,0,0,0,0,0,0,0,0,-0.1022,-0.1023,0,-0.1083,-0.1083,-0.1084,-0.1117,-0.1118,-0.1118,-0.1118,-0.1174,-0.1175,-0.1176,0,0,0,0,0,0,0,0,0,0,0,0,0,-0.0934,-0.0935,-0.1022,-0.1023,-0.1024,-0.1082,-0.1083,-0.1084,-0.1117,-0.1118,-0.1118,-0.1118,-0.1173,-0.1175,-0.1176,0,0,0,0,0,0,0,0,0,0,0,0,0,-0.098,-0.0936,-0.1022,-0.1049,-0.1052,-0.1082,-0.1083,-0.1084,-0.1117,-0.1118,-0.1118,-0.1118,-0.1173,-0.1175,-0.1176,-0.1181,0,0,-0.1182,-0.1183,0,0,0,0,0,0,0,0,-0.0977,-0.0983,-0.1044,-0.1047,-0.105,-0.1094,-0.1073,-0.1117,-0.1117,-0.1091,-0.1118,-0.1119,-0.1147,-0.1151,-0.116,-0.1183,-0.1186,-0.1182,-0.1183,-0.1184,-0.1185,0,0,0,0,0,0,0,-0.0974,-0.098,-0.1044,-0.1045,-0.1049,-0.1057,-0.1064,-0.1081,-0.1115,-0.1093,-0.1096,-0.1105,-0.1149,-0.1158,-0.1161,-0.1187,-0.1182,-0.1184,-0.1185,-0.1186,-0.127,-0.1271,0,0,0,0,0,0,-0.0969,-0.0977,-0.1042,-0.1046,-0.1016,-0.1059,-0.1066,-0.1078,-0.1115,-0.1121,-0.1105,-0.1107,-0.1154,-0.1159,-0.1163,-0.1219,-0.1184,-0.1186,-0.1187,-0.1269,-0.127,-0.1272,0,0,0,0,0,0,-0.0967,-0.0975,-0.104,-0.1014,-0.1023,-0.106,-0.1073,-0.108,-0.1105,-0.1124,-0.113,-0.1126,-0.1155,-0.1161,-0.1197,-0.1219,-0.1187,-0.1189,-0.1268,-0.127,-0.1271,-0.1298,0,0,0,0,0,0,-0.0964,-0.0973,-0.0985,-0.1014,-0.1025,-0.1066,-0.1074,-0.1081,-0.1109,-0.1113,-0.1144,-0.1148,-0.1156,-0.1194,-0.1198,-0.1221,-0.119,-0.1266,-0.1269,-0.1271,-0.1296,-0.1301,-0.1305,0,0,0,0,0,-0.0961,-0.0973,-0.0985,-0.0993,-0.1038,-0.1067,-0.1073,-0.1099,-0.111,-0.1123,-0.1149,-0.1148,-0.121,-0.1196,-0.1201,-0.1225,-0.1265,-0.1268,-0.127,-0.1294,-0.13,-0.1305,0,0,0,0,0,0,-0.0942,-0.0979,-0.0992,-0.1016,-0.1044,-0.1074,-0.109,-0.1107,-0.1138,-0.1145,-0.1162,-0.1169,-0.1208,-0.1214,-0.1198,-0.1256,-0.1238,-0.1242,-0.1254,-0.126,-0.1264,-0.1266,-0.1192,0,0,0,0,0,-0.0943,-0.0962,-0.0997,-0.1017,-0.1031,-0.1063,-0.1081,-0.11,-0.1129,-0.1143,-0.1167,-0.1194,-0.122,-0.1237,-0.1257,-0.1289,-0.1287,-0.1309,-0.1313,-0.1317,-0.1323,-0.1335,-0.1341,-0.128,-0.128,-0.128,0,0,-0.0941,-0.0964,-0.0975,-0.1014,-0.1038,-0.1064,-0.1075,-0.1106,-0.1135,-0.1144,-0.1191,-0.1209,-0.1231,-0.1269,-0.1287,-0.1279,-0.1334,-0.132,-0.1323,-0.1327,-0.1338,-0.1344,-0.1349,-0.1282,-0.1281,-0.1281,0,0,-0.094,-0.0969,-0.0982,-0.1007,-0.1046,-0.1071,-0.1084,-0.1124,-0.1151,-0.1194,-0.121,-0.1244,-0.1283,-0.1306,-0.1322,-0.1363,-0.1354,-0.137,-0.1397,-0.1409,-0.1414,-0.1418,-0.1422,-0.1426,-0.1374,-0.1374,-0.1374,0,-0.0939,-0.0961,-0.099,-0.101,-0.1035,-0.1076,-0.11,-0.1134,-0.1184,-0.1212,-0.1214,-0.1286,-0.1302,-0.1353,-0.1369,-0.1373,-0.1373,-0.1374,-0.1414,-0.1418,-0.1422,-0.1425,-0.1429,-0.1376,-0.1376,-0.1376,-0.1376,0,-0.0943,-0.0968,-0.098,-0.1022,-0.1053,-0.108,-0.1132,-0.1173,-0.1212,-0.1245,-0.1305,-0.1331,-0.1373,-0.1386,-0.1392,-0.1435,-0.1424,-0.1414,-0.1397,-0.143,-0.1431,-0.1435,-0.1378,-0.1378,-0.1377,-0.1377,0,0,-0.092,-0.0972,-0.0978,-0.1001,-0.1063,-0.1089,-0.115,-0.1213,-0.1261,-0.1306,-0.1359,-0.1408,-0.1423,-0.1442,-0.1455,-0.1471,-0.1498,-0.1458,-0.1457,-0.1456,-0.152,-0.143,-0.1426,-0.1492,-0.1493,-0.1494,-0.1509,0,-0.0917,-0.0946,-0.0983,-0.1029,-0.105,-0.1115,-0.1172,-0.1237,-0.1294,-0.1355,-0.1396,-0.1445,-0.1445,-0.1467,-0.1485,-0.1496,-0.1511,-0.1495,-0.1494,-0.1494,-0.1406,-0.1428,-0.1497,-0.1512,-0.1512,-0.1513,-0.1514,0,-0.0904,-0.0929,-0.096,-0.1037,-0.1057,-0.1096,-0.1196,-0.1252,-0.1347,-0.1391,-0.1446,-0.1479,-0.1525,-0.1511,-0.1546,-0.1534,-0.1533,-0.1534,-0.1534,-0.1444,-0.1412,-0.1474,-0.1521,-0.152,-0.152,-0.1519,-0.1519,0,-0.0855,-0.0918,-0.0943,-0.0965,-0.1054,-0.1095,-0.1155,-0.1257,-0.1313,-0.1408,-0.1448,-0.151,-0.1537,-0.1552,-0.1567,-0.1556,-0.1593,-0.1573,-0.1493,-0.1487,-0.1551,-0.1546,-0.1594,-0.1594,-0.1594,-0.1594,-0.1594,0,-0.0825,-0.0852,-0.0922,-0.0932,-0.0982,-0.1064,-0.1139,-0.1208,-0.1312,-0.1368,-0.1453,-0.149,-0.1547,-0.158,-0.1581,-0.1549,-0.1603,-0.15,-0.1485,-0.1562,-0.1559,-0.1553,-0.1549,-0.1595,-0.1594,-0.1594,-0.1594,0,-0.0759,-0.0806,-0.0833,-0.0918,-0.0951,-0.0982,-0.1107,-0.1165,-0.1271,-0.1341,-0.1369,-0.1477,-0.1512,-0.1564,-0.1592,-0.1551,-0.1541,-0.1519,-0.1606,-0.1596,-0.1422,-0.1419,-0.1415,-0.1412,-0.141,-0.1407,-0.1406,0,-0.0727,-0.073,-0.0792,-0.081,-0.0846,-0.0919,-0.0978,-0.1113,-0.1171,-0.1315,-0.1331,-0.1417,-0.1473,-0.1443,-0.1504,-0.1508,-0.1494,-0.1478,-0.1441,-0.1418,-0.1405,-0.1405,-0.1405,-0.1402,-0.1401,-0.14,-0.14,0,-0.0658,-0.0674,-0.0687,-0.071,-0.0758,-0.0825,-0.0913,-0.0949,-0.1104,-0.121,-0.1257,-0.1295,-0.1339,-0.1371,-0.1396,-0.1396,-0.1479,-0.145,-0.1455,-0.142,-0.1402,-0.1391,-0.1394,-0.1391,-0.1392,-0.1393,-0.1393,0,-0.0598,-0.0576,-0.0584,-0.0603,-0.0654,-0.07,-0.0777,-0.0858,-0.0935,-0.1106,-0.1112,-0.1216,-0.1311,-0.1313,-0.1333,-0.1333,-0.1305,-0.1254,-0.1268,-0.1279,-0.1231,-0.1188,-0.1099,0,0,0,0,0,-0.0536,-0.0497,-0.0491,-0.0499,-0.0548,-0.0583,-0.0719,-0.0813,-0.0962,-0.0958,-0.1038,-0.1079,-0.1123,-0.1181,-0.1152,-0.127,-0.1307,-0.1231,-0.1254,-0.1341,-0.1352,-0.131,0,0,0,0,0,0,-0.0492,-0.0466,-0.0443,-0.0405,-0.0401,-0.0458,-0.0541,-0.0658,-0.0681,-0.0832,-0.0865,-0.0975,-0.1038,-0.1097,-0.1107,-0.1126,-0.1114,-0.1304,-0.13,-0.1335,-0.1345,-0.1353,-0.1314,0,0,0,0,0]},{"header":{"parameterUnit":"m.s-1","parameterCategory":2,"la1":30.2991,"la2":30.254,"lo1":-89.0895,"lo2":-89.0444,"dy":0.0017,"dx":0.0017,"nx":28,"ny":28,"refTime":"2024-02-21T03:00:00:Z","depth":"4","parameterNumber":3,"parameterNumberName":"V-component_of_CURRENTS"},"data":[0,0,0,0,0,0,0,0,0,0,0,0,0,0,0,0,0,0,0,0,0,0,0,0,0,0,0,0,0,0,0,0,0,0,0,0,0,0,0,0,0,0,0,0,0,0,0,0,0,0,0,0,0,0,0,0,0,0,0.0022,0.0022,0,0.0031,0.0032,0.0032,0.0049,0.0049,0.0049,0.0049,0.0077,0.0078,0.0078,0,0,0,0,0,0,0,0,0,0,0,0,0,0.0026,0.0026,0.0022,0.0022,0.0022,0.0031,0.0032,0.0032,0.0048,0.0049,0.0049,0.0049,0.0077,0.0078,0.0078,0,0,0,0,0,0,0,0,0,0,0,0,0,0.0029,0.0026,0.0022,0.0031,0.0032,0.0031,0.0032,0.0032,0.0048,0.0049,0.0049,0.005,0.0077,0.0078,0.0078,0.0074,0,0,0.0081,0.0081,0,0,0,0,0,0,0,0,0.0029,0.0029,0.003,0.0031,0.0032,0.0039,0.0043,0.0047,0.0048,0.0043,0.0049,0.005,0.0065,0.0067,0.0068,0.0076,0.0077,0.0081,0.0081,0.0081,0.0082,0,0,0,0,0,0,0,0.0029,0.0029,0.0026,0.003,0.0031,0.0037,0.0038,0.0044,0.0052,0.0043,0.0044,0.0045,0.0066,0.0068,0.0069,0.0077,0.0081,0.0081,0.0082,0.0082,0.0093,0.0093,0,0,0,0,0,0,0.0026,0.0028,0.0026,0.0027,0.0031,0.0037,0.0038,0.0037,0.0052,0.0054,0.0044,0.0045,0.0066,0.0068,0.007,0.0071,0.0081,0.0082,0.0082,0.0093,0.0093,0.0093,0,0,0,0,0,0,0.0026,0.0025,0.0026,0.0027,0.0028,0.0036,0.0035,0.0036,0.004,0.0052,0.0055,0.0046,0.0067,0.0069,0.0075,0.0072,0.0082,0.0083,0.0094,0.0093,0.0093,0.0069,0,0,0,0,0,0,0.0026,0.0025,0.0023,0.0027,0.0028,0.002,0.0034,0.0036,0.0039,0.0041,0.0055,0.0058,0.0067,0.0074,0.0076,0.0073,0.0084,0.0094,0.0093,0.0093,0.007,0.0068,0.0066,0,0,0,0,0,0.0026,0.0018,0.0023,0.0023,0.0024,0.0019,0.002,0.0028,0.0039,0.0034,0.0048,0.0058,0.0074,0.0074,0.0076,0.0074,0.0094,0.0094,0.0093,0.0071,0.0068,0.0066,0,0,0,0,0,0,0.0019,0.0019,0.0024,0.0018,0.0017,0.0022,0.0019,0.0027,0.0033,0.0038,0.0054,0.0057,0.006,0.0071,0.0071,0.0077,0.0086,0.0086,0.0068,0.0066,0.0064,0.0062,0.0084,0,0,0,0,0,0.0017,0.0011,0.0012,0.0008,0.0006,0.0014,0.0014,0.0018,0.0025,0.0028,0.0039,0.0052,0.006,0.0066,0.0071,0.0075,0.0095,0.0076,0.0074,0.0072,0.0072,0.0106,0.0107,0.0092,0.0092,0.0092,0,0,0.0013,0.0013,0.001,0.0006,0.0008,-0.0005,0.0015,0.0011,0.0004,0.003,0.0027,0.0043,0.0058,0.006,0.0063,0.007,0.0086,0.0072,0.0071,0.0071,0.0106,0.0108,0.0109,0.0092,0.0092,0.0092,0,0,-0.0004,0.0003,-0.0012,-0.0018,-0.0021,-0.0016,-0.0018,-0.0015,-0.0008,-0.001,0.001,0.0026,0.0032,0.0048,0.0056,0.0049,0.0072,0.0049,0.0041,0.0074,0.0076,0.0077,0.0098,0.0102,0.0052,0.0052,0.0052,0,-0.0007,-0.0028,-0.0017,-0.0037,-0.0047,-0.0024,-0.0046,-0.0037,-0.0031,-0.0024,-0.0016,0.0012,0.0027,0.0041,0.004,0.0045,0.0063,0.0048,0.0072,0.0074,0.0077,0.0097,0.0102,0.0051,0.0051,0.0051,0.0051,0,-0.0041,-0.006,-0.007,-0.0087,-0.0093,-0.0108,-0.0099,-0.0092,-0.0077,-0.0065,-0.0046,-0.0019,0.0001,0.0009,0.0021,0.0044,0.0051,0.0063,0.0078,0.0077,0.0098,0.0103,0.0049,0.0049,0.005,0.005,0,0,-0.0044,-0.0087,-0.0091,-0.0115,-0.0123,-0.0134,-0.0135,-0.0131,-0.0127,-0.0102,-0.0094,-0.0063,-0.0034,-0.0022,0.0005,0.0038,0.0068,0.0056,0.0058,0.0075,0.0133,0.012,0.0125,0.0087,0.0088,0.0089,0.0139,0,-0.0076,-0.0132,-0.0139,-0.0186,-0.0215,-0.0198,-0.0206,-0.0193,-0.0168,-0.0151,-0.0099,-0.0085,-0.005,-0.0038,0.0003,0.005,0.0082,0.0053,0.0132,0.0134,0.0123,0.0131,0.0091,0.0143,0.0145,0.0146,0.0146,0,-0.0109,-0.0145,-0.0204,-0.0246,-0.0256,-0.0273,-0.0271,-0.0273,-0.0231,-0.0213,-0.0167,-0.0128,-0.0074,-0.0048,0.0047,0.0027,0.0076,0.0118,0.0121,0.0121,0.0131,0.0147,0.0156,0.0155,0.0154,0.0154,0.0153,0,-0.0127,-0.0187,-0.0238,-0.0256,-0.0296,-0.0308,-0.0313,-0.0288,-0.029,-0.0242,-0.0234,-0.0159,-0.0127,-0.0045,0.0044,0.0047,0.0145,0.0159,0.0195,0.0194,0.0201,0.0199,0.0224,0.0224,0.0224,0.0223,0.0223,0,-0.016,-0.0198,-0.0254,-0.0285,-0.0337,-0.0342,-0.0368,-0.0356,-0.0338,-0.0342,-0.0265,-0.0245,-0.0124,-0.0052,0.0033,0.0128,0.0139,0.0194,0.0209,0.0188,0.0184,0.0205,0.0202,0.0225,0.0225,0.0225,0.0224,0,-0.0169,-0.0209,-0.0275,-0.0333,-0.0353,-0.0384,-0.0418,-0.0431,-0.0405,-0.0404,-0.0394,-0.0307,-0.0211,-0.0096,0.0034,0.0103,0.0199,0.0227,0.0186,0.0197,0.0229,0.0224,0.0275,0.0275,0.0275,0.0275,0.0275,0,-0.0181,-0.0218,-0.0307,-0.0355,-0.0385,-0.0431,-0.0464,-0.0464,-0.0474,-0.0441,-0.0443,-0.0354,-0.0286,-0.011,0.0015,0.0172,0.0194,0.0242,0.0249,0.0226,0.0236,0.0231,0.0226,0.0275,0.0275,0.0275,0.0275,0,-0.0199,-0.023,-0.0282,-0.0378,-0.0438,-0.0501,-0.0539,-0.0558,-0.0552,-0.0536,-0.0479,-0.0378,-0.0272,-0.0119,-0.0002,0.0114,0.0214,0.0243,0.0244,0.0251,0.0227,0.0235,0.0231,0.0275,0.0275,0.0275,0.0275,0,-0.0201,-0.0238,-0.0309,-0.0388,-0.0473,-0.0544,-0.057,-0.0582,-0.0589,-0.0551,-0.0532,-0.0404,-0.0324,-0.015,-0.0038,0.0072,0.0105,0.0145,0.0152,0.0154,0.0106,0.0056,0.0066,0,0,0,0,0,-0.0198,-0.0234,-0.0315,-0.0408,-0.0495,-0.0538,-0.0607,-0.0623,-0.0624,-0.0595,-0.0562,-0.0461,-0.028,-0.0191,-0.0084,-0.0039,0.0119,0.009,0.0167,0.0276,0.0276,0.024,0,0,0,0,0,0,-0.0201,-0.0258,-0.0301,-0.0402,-0.0465,-0.0553,-0.0602,-0.0614,-0.059,-0.0572,-0.0476,-0.0421,-0.0245,-0.0331,-0.0072,-0.0038,0.0027,0.0178,0.018,0.0276,0.0276,0.0276,0.0239,0,0,0,0,0]}]]